Regional Weather Roundup
Issued by NWS Wilmington, NC

Home | Current Version | Previous Version | Text Only | Print | Product List | Glossary On
Versions: 1 2 3 4 5 6 7 8 9 10 11 12 13 14 15 16 17 18 19 20 21 22 23 24 25 26 27 28 29 30 31 32 33 34 35 36 37 38 39 40 41 42 43 44 45 46 47 48 49 50
000
ASUS42 KILM 200913
RWRILM
RWRILM
REGIONAL HOURLY WEATHER ROUNDUP
NATIONAL WEATHER SERVICE WILMINGTON NC
500 AM EDT WED SEP 20 2017

NOTE: "FAIR" INDICATES FEW OR NO CLOUDS BELOW 12,000 FEET WITH NO
SIGNIFICANT WEATHER AND/OR OBSTRUCTIONS TO VISIBILITY.

...............WFO WILMINGTON COUNTY WARNING AREA...............

......COASTAL NC AND SC COUNTIES......

CITY           SKY/WX    TMP DP  RH WIND       PRES   REMARKS
WILMINGTON     CLEAR     67  65  93 CALM      29.97R
N MYRTLE BEACH CLEAR     70  67  90 W3        29.98R
MYRTLE BEACH   CLEAR     70  67  90 W5        29.99R

......INLAND NC AND SC COUNTIES.......

CITY           SKY/WX    TMP DP  RH WIND       PRES   REMARKS
LUMBERTON      PTCLDY    63  63 100 CALM      29.97R
ELIZABETHTOWN  NOT AVBL
WHITEVILLE     CLEAR     66  65  96 CALM      29.97S
FLORENCE       PTCLDY    65  65 100 CALM      29.98R
DARLINGTON     CLEAR     64  64 100 SW3       29.98S FOG
KINGSTREE      FAIR      64  63  94 CALM      29.98S
HARTSVILLE     FAIR      63  63 100 W3        29.98S
BENNETTSVILLE  FAIR      63  63 100 CALM      29.97S FOG
CONWAY         FAIR      63  63 100 CALM      29.99R
GEORGETOWN     FAIR      66  64  94 CALM      29.99S FOG
MARION         FAIR      64  64 100 CALM      29.98S FOG

....................REST OF NORTH CAROLINA......................

.........EASTERN NC.........

CITY           SKY/WX    TMP DP  RH WIND       PRES   REMARKS
CAPE HATTERAS  MOCLDY    74  69  85 NW9       29.91R
JACKSONVILLE   PTCLDY    64  63  96 CALM      29.97R
MOREHEAD CITY  CLEAR     70  67  90 W3        29.95R
KENANSVILLE    CLEAR     63  61  94 CALM      29.96S FOG
NEW BERN       CLEAR     67  66  97 SW3       29.96R
ELIZABETH CITY MOCLDY    69  68  96 W9        29.89S

.........CENTRAL NC.........

CITY           SKY/WX    TMP DP  RH WIND       PRES   REMARKS
RALEIGH DURHAM CLEAR     64  64 100 CALM      29.97R
ROCKY MOUNT    CLEAR     62  62 100 CALM      29.96R FOG
ROANOKE RAPIDS NOT AVBL
FAYETTEVILLE   CLEAR     66  64  93 SW3       29.96S
HOFFMAN        CLEAR     62  61  96 CALM      29.97S

.........WESTERN NC.........

CITY           SKY/WX    TMP DP  RH WIND       PRES   REMARKS
CHARLOTTE      PTCLDY    68  68 100 CALM      29.99S
GREENSBORO     CLEAR     65  65 100 CALM      29.97S
HICKORY        NOT AVBL
BOONE          NOT AVBL
ASHEVILLE      NOT AVBL

.....................REST OF SOUTH CAROLINA.....................

.........EASTERN SC.........

CITY           SKY/WX    TMP DP  RH WIND       PRES   REMARKS
CHARLESTON     PTCLDY    73  72  96 CALM      29.98S FOG
BEAUFORT MCAS  PTCLDY    74  73  97 SW3       29.98S
HILTON HEAD    PTCLDY    75  75 100 CALM      29.99S

.........CENTRAL SC.........

CITY           SKY/WX    TMP DP  RH WIND       PRES   REMARKS
COLUMBIA       PTCLDY    69  65  86 CALM      29.98R
ORANGEBURG     PTCLDY    68  67  96 CALM      29.99S FOG
SUMTER SHAW    PTCLDY    68  66  92 CALM      29.96S

.........WESTERN SC.........

CITY           SKY/WX    TMP DP  RH WIND       PRES   REMARKS
GREENVILLE     NOT AVBL
ROCK HILL        N/A    N/A N/A N/A MISG      30.00R
ANDERSON       CLOUDY    71  69  93 CALM      29.99S
CLEMSON        NOT AVBL
GREENWOOD      CLEAR     66  65  96 CALM      30.01R


...................COASTAL AND OFFSHORE REPORTS..................

................LOCAL PIERS AND NC RESERVE................


STATION/POSITION TIME  SKY/WX   TEMP    WIND        PRES    VSBY
                                AIR SEA DIR/SP/G
                 (UTC)          (F)     (DEG/KT/KT) (MB)    (MI)
JOHNY MRCER PIER 0836            72 80  280/  5/  7 1013.8R
NC RESRV MASNBRO 0745            70     290/  2     1015.0
OCEAN CREST PIER NOT AVBL
SPRINGMAID  PIER 0836                               1014.3R


................COASTAL AND OFFSHORE BUOYS................


STATION/POSITION TIME  SKY/WX   TEMP    WIND        PRES    VSBY
                                AIR SEA DIR/SP/G
                 (UTC)          (F)     (DEG/KT/KT) (MB)    (MI)
DIMNDSHOAL 41025 0850            75 74  300/ 14/ 17 1012.4R
WVE H/P(F/S)=  6/11 SWL H/P/D(F/S/D)=  5/ 70/11

CAPE LOOKOUT     0900            76     270/  8/ 10 1013.7R
ONSLOW BAY 41036 NOT AVBL
ONSLOW BAY 41064 0808            79     290/ 10/ 14 1013.9R
ONSLOW BAY 41159 NOT AVBL
MASNBO INL 41110 0859               78                N/A
WVE H/P(F/S)=  2/13 SWL H/P/D(F/S/D)=  2/100/13

WILM HARBR 41108 0900               79                N/A
WVE H/P(F/S)=  2/11 SWL H/P/D(F/S/D)=  2/110/11

27SE WRITB 41037 0808            79 79  260/ 10/ 14 1014.3R
FRYING PAN 41013 0900            80 82  270/ 10/ 12 1014.7
SUNST NRSH 41024 0808            76 79  290/  6/  8 1014.7R
CAPRS NRSH 41029 0808            76 80  260/  8/ 12 1014.8S
EDISTO     41004 0850            79     260/  8/ 10 1014.8R
WVE H/P(F/S)=  3/10 SWL H/P/D(F/S/D)=  3/ 70/10



..........OFFSHORE BUOYS BEYOND 100 NM OFFSHORE...........
.....IN A TRIANGLE---HAT TO BERMUDA TO BAHAMAS TO HAT.....


STATION/POSITION TIME  SKY/WX   TEMP    WIND        PRES    VSBY
                                AIR SEA DIR/SP/G
                 (UTC)          (F)     (DEG/KT/KT) (MB)    (MI)
150E HAT   41001 NOT AVBL
W BERMUDA  41048 0900            79 78  250/ 14/ 16 1014.7
ATLANTIC S 41049 0850            82 83  130/ 12/ 16 1017.2F
WVE H/P(F/S)=  6/10 SWL H/P/D(F/S/D)=  5/170/10

E BAHAMAS  41046 0900            82 84   80/ 10/ 14 1014.5
NE BAHAMAS 41047 0900            82 82  160/  4/ 10 1015.2
120E CANVRL41010 0850               84   CALM  /  2 1014.6R
WVE H/P(F/S)=  6/15 SWL H/P/D(F/S/D)=  7/15


END



USA.gov is the U.S. government's official web portal to all federal, state and local government web resources and services.